Temperature
12 12 13 13 10 8 10 10 11 12 13 15 16 16 16 17 18 18 19 19 19 19 18 18 17 17 17 17 17 17 17 17 17 17 17 17 17 17 17 17 17 17 16 16 16 16 16 16 16
12 12 13 12 9 9 9 9 10 12 14 15 16 16 16 17 18 18 18 18 18 18 18 17 17 17 17 17 17 17 17 17 17 17 17 17 17 16 17 16 17 16 16 16 16 16 16 16 16
11 12 12 8 8 9 10 10 10 12 14 14 15 16 16 16 17 17 18 18 18 18 18 17 17 17 17 17 16 16 16 16 16 16 16 16 16 16 16 16 16 16 16 16 16 16 16 16 16
11 12 11 8 9 8 10 11 11 11 13 14 15 15 16 15 15 16 17 18 18 18 17 17 17 17 17 16 16 16 16 16 16 16 16 16 16 16 16 16 16 16 16 16 16 16 16 16 16
11 11 8 7 8 8 9 10 11 11 12 13 14 13 15 15 15 16 17 17 17 17 17 17 16 16 16 16 16 16 16 16 16 16 16 16 16 16 16 16 16 16 16 16 16 16 16 16 16
11 8 7 7 7 8 9 11 11 11 12 13 13 13 14 15 15 16 16 16 16 16 16 16 16 16 16 16 16 16 16 16 16 16 16 16 16 16 16 16 16 16 16 16 16 16 16 16 16
9 6 7 7 7 8 10 11 11 11 11 12 13 13 14 15 15 15 15 15 16 16 16 16 16 16 16 16 16 16 16 16 16 16 16 16 16 15 15 16 16 16 16 16 16 16 16 16 16
9 6 7 6 7 8 10 11 11 11 11 12 13 12 13 14 14 14 15 15 15 15 15 15 15 15 15 15 15 15 15 15 15 15 15 15 15 15 15 15 16 16 16 16 16 16 16 16 16
9 6 6 6 7 8 9 10 10 11 11 11 12 12 12 13 13 14 14 15 15 15 15 15 15 15 15 15 15 15 15 15 15 15 15 15 15 15 15 15 15 16 16 16 16 16 16 16 16
8 5 6 7 8 8 9 9 9 10 9 10 11 12 12 12 13 13 13 14 14 14 15 15 15 15 15 15 15 15 15 15 15 15 15 15 15 15 15 15 15 15 15 15 15 15 16 16 16
7 6 6 7 8 8 8 9 9 9 8 10 10 11 11 11 12 12 13 13 14 14 14 14 14 15 15 15 15 15 15 15 15 15 15 15 15 15 15 15 15 15 15 15 15 15 16 16 16
6 6 7 7 8 8 8 8 8 8 9 10 10 10 10 11 11 12 12 13 13 13 14 14 14 14 14 14 14 14 14 14 14 14 14 14 14 14 14 15 15 15 15 15 15 15 16 15 15
6 6 7 7 8 8 8 7 8 8 9 10 10 10 10 11 11 11 12 12 12 13 13 14 14 14 14 14 14 14 14 14 14 14 14 14 14 14 14 14 15 15 15 15 15 15 15 15 15
6 6 6 7 7 7 7 7 7 8 9 9 9 10 10 10 11 11 11 12 12 13 13 13 13 14 14 14 14 14 14 14 14 14 14 14 14 14 14 14 14 15 15 15 15 15 15 15 15
6 5 6 6 7 7 7 6 6 9 9 9 9 9 10 10 10 11 11 11 12 12 13 13 13 13 13 13 14 14 14 14 14 14 14 14 14 14 14 14 14 14 15 15 15 15 15 15 15
5 5 5 6 6 7 6 6 7 8 8 8 8 9 9 10 10 11 11 11 11 12 12 12 12 13 13 13 13 13 13 13 14 14 14 14 14 14 14 14 14 14 14 14 14 14 14 14 14
4 4 4 5 6 6 6 5 6 8 7 7 7 8 9 9 10 10 11 11 11 11 12 12 12 12 12 13 13 13 13 13 13 13 13 14 13 13 13 13 13 14 14 14 14 14 14 14 14
4 4 4 5 5 6 5 5 6 7 7 7 7 7 8 8 9 10 10 10 11 11 11 11 12 12 12 12 12 12 12 13 13 13 13 13 13 13 13 13 13 13 13 13 14 14 14 14 14
4 4 4 5 6 5 5 5 6 6 6 6 6 7 7 8 9 9 9 10 10 10 11 11 11 12 12 12 12 12 12 12 12 13 13 13 13 13 13 13 13 13 13 13 13 13 13 13 13
4 4 4 5 6 6 5 5 6 6 6 6 6 6 6 7 8 8 9 9 10 10 10 11 11 11 11 11 12 12 12 12 12 12 12 12 12 12 12 12 12 12 12 12 13 13 13 13 13
5 4 4 5 5 6 5 5 6 6 6 6 6 6 6 6 6 7 8 9 9 9 10 10 10 11 11 11 11 11 11 11 11 12 12 12 12 12 12 12 12 12 12 12 12 13 13 12 12
5 5 5 5 5 5 5 5 5 6 6 6 6 6 5 6 6 7 7 8 8 9 9 10 10 10 11 11 11 11 11 11 11 11 11 12 12 12 12 12 12 12 12 12 12 12 12 12 12
5 5 5 5 5 5 5 5 5 5 6 6 6 5 5 5 6 6 7 7 8 8 9 9 9 10 10 10 10 10 10 11 11 11 11 11 11 11 11 11 11 11 12 12 12 12 12 12 12
5 5 5 5 5 5 5 5 5 5 5 5 5 5 5 5 5 6 6 7 7 8 8 9 9 9 9 9 10 10 10 10 10 10 11 11 11 11 11 11 11 11 11 11 11 11 12 12 12
5 5 4 4 4 5 5 5 5 5 5 5 5 4 4 4 5 5 5 6 6 7 7 8 8 8 9 9 9 9 9 10 10 10 10 10 10 10 10 11 11 11 11 11 11 11 11 11 11
5 5 5 5 5 5 5 5 5 6 5 5 4 4 4 3 4 4 4 5 5 6 6 7 7 8 8 8 8 9 9 9 9 9 9 10 10 10 10 10 10 10 10 10 11 11 11 11 11
6 5 5 4 5 5 5 5 6 6 5 5 4 3 3 3 3 3 4 4 5 5 6 6 7 7 7 8 8 8 8 8 9 9 9 9 9 9 10 10 10 10 10 10 10 10 10 10 11
6 5 4 5 5 6 6 5 5 5 5 4 3 3 3 3 3 3 3 4 4 5 5 6 6 6 7 7 7 7 8 8 8 8 8 8 9 9 9 9 9 9 10 9 10 10 10 10 10
6 6 5 5 5 5 6 6 6 5 4 4 3 3 2 2 2 3 3 4 4 4 5 5 5 6 6 6 7 7 7 7 7 7 8 8 8 8 9 9 9 9 9 9 9 9 9 9 9
6 6 5 5 5 4 5 5 5 4 4 4 3 3 3 2 2 3 3 3 4 4 4 5 5 5 5 5 6 6 6 6 7 7 7 7 7 8 8 8 8 8 8 8 9 9 9 9 9
Wind_Speed
6 4 3 4 5 4 4 6 4 4 4 2 2 3 5 5 4 5 4 1 2 5 11 16 18 18 17 17 16 16 16 16 17 17 17 18 18 18 18 18 18 18 18 18 18 19 19 19 18
3 3 5 5 5 3 6 6 6 5 3 6 5 2 3 5 4 6 5 3 2 6 11 13 17 18 18 17 16 16 16 16 16 17 17 17 18 18 17 17 18 18 18 18 18 19 19 18 17
2 4 5 5 5 7 6 4 5 5 6 4 4 3 2 4 6 6 6 5 3 6 10 12 17 18 18 17 17 17 16 16 16 17 17 17 17 17 17 17 18 18 18 18 19 19 18 17 17
3 5 5 3 6 6 5 2 1 5 6 3 2 5 4 2 6 7 8 2 3 5 8 11 17 17 17 17 17 17 17 16 16 16 17 17 17 18 18 17 17 17 18 19 19 18 18 17 16
4 4 4 2 5 4 5 4 2 2 4 3 3 4 4 4 7 8 7 3 1 3 5 9 15 16 17 17 17 17 17 17 16 16 16 17 17 18 18 18 17 18 18 19 18 18 17 16 15
4 4 4 4 5 4 5 4 2 2 3 4 2 3 3 4 9 10 8 4 1 1 2 6 13 15 16 16 17 17 17 17 17 16 17 17 17 17 18 18 19 19 19 19 18 17 17 15 14
5 5 4 4 3 4 3 2 1 2 3 4 2 3 4 6 9 9 7 5 3 1 1 3 7 12 15 15 16 17 17 17 17 16 16 17 17 17 18 19 20 19 19 18 18 17 16 15 14
5 5 3 3 4 4 3 2 1 1 5 4 1 2 4 6 9 8 7 5 4 2 1 2 4 6 9 11 14 16 16 16 16 16 16 16 17 18 19 19 20 20 19 18 17 17 15 14 14
4 4 4 5 5 3 2 3 5 3 4 4 3 3 4 7 8 9 7 6 5 4 3 3 2 3 6 8 10 12 13 14 14 14 15 14 13 15 17 18 20 20 19 18 17 16 15 14 13
4 4 6 4 3 2 3 3 4 5 5 4 5 6 6 6 7 7 7 7 6 6 5 4 4 4 4 6 6 7 9 10 10 11 12 11 12 13 15 18 20 20 19 18 17 16 14 12 10
4 5 3 4 4 3 4 5 3 4 6 7 8 9 8 7 8 7 8 7 7 6 6 5 4 4 4 4 4 4 6 7 8 10 11 11 11 11 12 13 15 16 16 14 14 13 11 10 9
3 3 3 3 2 3 4 4 5 7 10 9 9 10 9 10 10 9 10 9 8 7 8 6 5 5 5 5 4 5 4 4 5 9 12 11 7 6 8 8 11 12 12 10 10 9 9 9 9
1 2 3 5 6 6 7 8 7 11 13 11 11 10 11 11 11 10 10 9 9 9 8 7 5 6 5 5 5 5 5 5 6 8 12 13 8 8 7 7 9 10 11 10 8 8 7 6 7
1 3 5 6 7 5 7 9 6 11 9 9 9 10 11 12 12 11 9 10 10 9 8 6 6 6 6 6 6 6 5 6 6 7 10 13 10 8 8 8 8 9 11 10 9 8 6 5 5
1 3 6 4 3 3 3 8 6 9 8 9 11 11 12 12 11 11 11 11 10 10 8 7 7 7 7 8 7 6 5 6 6 7 11 13 12 11 9 8 9 9 11 10 8 6 5 4 4
2 3 4 5 3 3 1 9 7 7 7 10 11 11 11 12 11 11 11 10 10 9 8 8 8 7 8 7 7 5 5 6 6 7 9 12 13 13 9 8 9 10 11 9 7 6 5 5 5
3 2 3 6 3 2 1 9 9 9 8 11 11 11 11 11 11 9 9 9 9 9 8 8 8 8 8 8 6 5 5 6 5 6 7 10 12 14 10 8 7 10 8 8 8 6 5 5 5
1 2 3 6 5 4 6 11 14 10 8 10 10 10 10 11 12 10 8 7 7 7 7 7 7 7 7 6 4 4 4 5 5 6 7 10 11 13 10 8 9 10 8 8 8 7 6 5 5
1 2 6 7 6 5 8 12 14 11 8 9 9 9 10 11 10 8 7 6 5 4 5 5 5 5 5 4 4 4 5 5 5 6 8 10 11 12 11 9 9 10 10 10 10 7 7 5 4
2 5 6 7 4 4 7 11 9 7 6 7 8 10 10 11 10 8 7 5 4 3 4 4 5 5 5 5 4 3 3 4 4 4 6 9 10 11 11 11 10 11 10 11 11 8 6 5 6
4 5 5 6 8 4 6 8 6 6 5 7 8 8 9 10 11 10 8 6 4 3 3 4 4 4 5 5 2 2 2 1 3 4 5 7 8 10 9 10 10 10 10 11 12 12 11 8 7
4 4 5 6 5 4 3 5 6 7 9 10 11 11 11 11 10 9 8 7 6 4 3 3 3 3 3 4 4 4 3 3 3 3 4 5 7 8 9 9 10 10 10 10 11 12 9 9 8
5 3 3 4 3 4 2 2 7 7 9 12 12 12 11 11 10 10 9 8 7 5 4 3 2 1 1 2 4 5 4 3 2 2 3 3 4 6 7 8 9 10 9 10 11 11 11 10 9
3 2 1 0 1 2 3 1 5 5 9 12 13 13 13 12 11 11 10 10 8 7 6 5 3 3 2 0 1 3 3 3 2 2 3 3 3 4 5 6 7 8 9 10 11 12 12 11 10
1 2 3 4 3 3 2 1 4 5 7 9 11 12 12 12 12 13 13 13 12 11 9 7 6 5 4 2 1 0 1 2 2 3 3 3 3 3 4 5 5 6 7 8 9 10 11 12 12
0 2 2 1 3 4 2 2 4 3 5 7 8 10 11 13 12 13 13 12 12 12 11 9 8 7 6 5 3 3 1 1 1 1 1 2 2 3 3 4 5 6 6 7 8 8 9 9 11
1 1 2 2 1 2 4 4 3 3 6 8 9 10 11 12 12 12 12 12 12 12 12 10 10 9 8 7 6 5 4 3 2 2 1 1 2 2 3 3 4 5 5 7 7 7 8 9 10
1 2 2 1 0 2 4 3 4 6 7 8 8 9 10 10 11 11 11 12 11 11 10 10 10 9 9 9 8 6 6 5 4 3 3 2 2 2 3 3 3 4 5 5 6 6 6 8 8
0 1 1 1 2 1 2 3 1 3 3 4 5 6 7 8 9 10 10 10 10 10 10 11 11 11 10 9 8 8 8 7 6 5 5 4 3 3 3 3 3 3 4 5 5 6 6 8 8
2 2 2 1 1 1 1 4 2 1 1 2 3 4 6 7 7 8 9 10 10 11 10 10 10 10 10 9 9 8 8 8 8 7 7 6 5 4 4 3 2 3 3 4 5 6 6 8 8
Wind_Direction
4 15 60 59 63 65 227 236 227 240 232 252 253 241 224 222 208 245 309 169 174 159 168 172 168 168 167 166 163 160 157 156 154 154 153 152 151 151 151 150 148 145 141 137 133 130 126 124 120
2 39 58 67 107 172 247 236 228 229 264 310 303 265 248 261 274 298 327 300 204 166 167 172 170 171 170 169 168 166 164 162 161 160 159 158 156 155 154 153 151 148 145 141 136 133 130 127 125
44 50 86 96 152 193 221 223 232 285 300 315 320 326 280 288 320 314 309 292 189 169 169 174 173 173 173 173 173 172 171 170 169 166 165 164 162 160 158 156 153 149 146 143 139 136 134 132 130
74 53 62 108 206 222 222 235 284 323 328 339 346 317 305 326 324 310 319 328 161 172 173 179 178 178 178 177 177 177 176 177 176 174 171 170 169 166 163 159 155 150 147 145 142 141 140 138 134
60 83 98 191 230 245 250 259 258 304 302 313 339 297 294 332 333 335 346 5 159 179 179 186 185 184 183 183 182 182 182 183 181 180 178 177 176 172 167 162 157 154 152 149 148 148 147 143 140
63 76 127 217 241 267 269 266 289 284 281 302 312 281 266 331 357 344 349 1 3 197 194 194 194 191 189 190 190 187 187 188 187 185 184 183 181 176 171 167 161 159 158 155 154 154 152 148 143
108 112 168 199 233 258 259 276 243 276 286 281 269 260 288 331 342 338 347 1 359 328 216 207 200 199 198 198 195 192 193 194 191 191 191 188 183 178 174 170 166 164 163 161 160 159 157 152 147
117 112 149 204 210 242 297 341 332 273 270 287 254 228 284 308 327 342 352 2 355 340 290 237 213 204 202 202 201 198 198 198 194 195 195 190 186 179 175 171 171 169 167 166 165 165 163 157 151
88 98 197 209 202 238 334 346 322 303 282 303 285 246 270 310 335 351 351 347 337 318 304 266 230 213 206 203 206 201 201 200 198 197 193 188 185 178 175 173 174 172 171 170 170 169 167 160 154
98 170 217 210 204 243 303 297 301 318 309 295 288 286 301 315 332 335 326 318 314 302 296 280 245 222 208 206 202 199 199 199 198 193 188 183 177 175 173 175 175 174 174 173 174 173 168 159 155
136 190 221 247 252 267 288 287 268 259 269 250 264 285 297 299 303 299 292 287 280 279 280 278 257 228 204 194 190 195 196 194 192 189 184 177 170 168 168 170 174 175 174 174 176 174 168 162 160
148 222 225 260 282 280 270 276 272 234 245 254 264 275 282 282 279 274 272 274 274 274 269 266 256 235 216 198 192 189 190 193 195 191 183 176 171 168 169 172 172 173 175 173 173 171 168 168 172
186 275 275 273 282 267 263 255 262 259 262 271 275 275 272 272 270 266 260 263 265 262 261 257 250 233 221 208 204 197 194 195 199 196 189 182 178 178 175 175 175 175 175 176 175 174 173 173 177
249 288 293 284 276 274 263 269 255 267 274 281 280 277 272 269 266 266 265 262 257 251 251 249 245 234 222 214 212 206 199 199 194 193 196 191 185 180 179 180 179 180 180 181 182 180 177 179 179
356 327 319 300 280 282 292 291 242 269 290 288 286 283 281 273 266 258 256 256 253 250 244 237 238 231 226 219 216 211 200 201 201 199 198 196 193 187 184 185 185 185 181 177 176 176 171 180 189
28 11 326 314 317 300 325 282 281 296 302 294 292 289 285 279 268 259 255 253 253 250 243 236 237 226 223 223 217 210 204 203 204 203 199 200 197 191 186 190 190 183 179 179 179 181 182 191 194
32 355 301 306 313 315 268 277 294 313 305 297 299 297 295 293 289 276 263 256 253 247 242 236 230 224 221 222 220 214 209 210 206 205 201 199 199 194 190 191 189 181 181 185 188 186 182 189 194
296 311 301 295 303 313 290 282 297 309 305 299 301 303 303 300 292 288 280 268 259 251 242 235 229 222 217 214 210 208 213 216 210 207 205 200 199 196 193 191 188 183 185 189 190 186 182 181 175
201 281 290 281 285 298 287 292 301 311 318 312 311 313 313 306 296 298 293 284 272 259 246 235 231 227 209 203 201 203 212 214 212 208 207 204 201 198 195 196 189 187 192 194 190 184 183 183 153
255 287 288 294 300 293 296 296 299 312 315 314 319 321 322 321 322 322 319 310 282 266 253 243 237 229 215 211 201 197 192 206 212 212 209 205 202 200 200 196 194 193 194 192 189 182 182 183 174
254 241 263 287 313 306 314 315 328 332 342 345 345 333 332 332 330 330 332 327 317 298 271 258 243 230 218 207 191 186 172 175 202 209 214 209 203 200 200 199 197 194 196 199 196 192 189 189 193
269 241 246 281 315 320 1 318 315 337 341 353 351 347 343 341 340 341 341 339 334 316 305 277 251 236 221 197 191 188 193 206 216 209 223 216 207 202 198 201 202 201 202 202 200 199 198 188 195
239 280 259 267 268 300 320 270 302 339 342 346 349 350 349 349 352 356 354 349 349 347 341 337 318 297 242 202 201 202 210 220 213 197 210 220 221 213 204 200 203 206 207 207 202 201 201 200 200
252 316 305 15 60 308 281 226 305 336 335 337 346 351 354 357 0 4 6 8 7 4 6 9 12 6 12 40 204 199 209 212 202 210 218 224 225 222 217 209 205 209 211 209 206 204 203 205 207
63 54 22 7 4 274 288 229 276 317 335 339 344 353 358 1 5 8 9 13 14 12 11 11 20 19 18 21 355 257 213 200 213 227 229 231 232 226 223 218 213 215 217 214 209 209 210 210 210
233 134 134 237 274 294 323 278 281 322 349 359 2 5 8 9 10 10 9 11 13 12 13 20 26 22 19 23 21 22 30 70 323 290 261 249 251 246 230 223 223 220 217 216 212 212 214 213 214
148 175 180 161 253 286 298 304 310 359 8 10 9 12 11 9 9 11 11 14 13 12 13 18 26 27 23 19 21 23 21 24 12 353 343 314 287 276 248 228 228 224 218 217 212 217 216 216 216
190 164 106 136 305 306 315 313 319 335 349 358 3 7 5 6 6 6 8 11 13 13 14 21 25 25 23 22 26 25 17 10 4 7 356 333 319 303 276 251 237 226 219 223 221 220 218 219 220
183 114 144 177 183 189 318 299 308 324 344 350 352 360 0 4 3 2 3 5 10 15 18 21 21 22 23 23 24 23 16 11 13 12 1 351 339 327 303 280 259 246 237 232 231 232 222 223 224
199 208 173 178 264 190 217 278 341 4 345 356 351 357 0 5 3 3 3 6 11 16 18 19 18 20 19 19 22 21 16 15 15 8 1 358 352 345 330 310 289 266 258 246 237 237 230 227 225
Height
1497 1499 1502 1505 1511 1521 1521 1515 1510 1507 1505 1503 1503 1503 1502 1503 1504 1505 1499 1495 1494 1494 1496 1497 1500 1503 1505 1508 1510 1513 1515 1517 1519 1521 1523 1524 1526 1528 1529 1531 1532 1533 1535 1536 1537 1538 1540 1541 1542
1497 1500 1504 1505 1515 1524 1520 1512 1508 1504 1503 1502 1501 1501 1500 1499 1499 1498 1496 1495 1495 1495 1496 1498 1500 1503 1505 1508 1510 1512 1515 1517 1518 1521 1522 1524 1526 1528 1529 1531 1532 1534 1535 1536 1538 1539 1540 1542 1543
1497 1500 1503 1507 1515 1517 1511 1506 1505 1503 1502 1501 1500 1500 1500 1499 1498 1497 1496 1496 1495 1496 1497 1498 1501 1503 1505 1507 1510 1512 1514 1516 1518 1520 1522 1524 1526 1528 1529 1531 1532 1534 1535 1537 1538 1540 1541 1542 1544
1498 1502 1504 1510 1512 1510 1506 1503 1502 1502 1501 1501 1500 1499 1499 1499 1498 1497 1496 1495 1496 1497 1497 1499 1501 1503 1505 1507 1509 1511 1513 1515 1517 1519 1521 1524 1525 1527 1529 1531 1532 1534 1535 1537 1538 1540 1542 1543 1544
1498 1500 1507 1512 1510 1506 1503 1502 1501 1501 1501 1500 1500 1499 1497 1498 1496 1496 1495 1495 1496 1497 1498 1499 1501 1503 1505 1507 1509 1510 1512 1514 1516 1518 1521 1523 1525 1527 1528 1530 1532 1534 1535 1537 1539 1540 1542 1544 1545
1498 1501 1511 1512 1509 1505 1502 1500 1500 1500 1500 1499 1499 1498 1496 1496 1495 1494 1494 1495 1495 1496 1498 1499 1500 1502 1504 1506 1508 1509 1511 1513 1515 1517 1519 1521 1524 1526 1528 1530 1532 1533 1535 1537 1539 1541 1542 1544 1546
1499 1504 1509 1509 1508 1505 1501 1499 1499 1499 1499 1499 1498 1497 1495 1495 1494 1494 1494 1494 1495 1496 1497 1498 1500 1501 1503 1505 1506 1508 1510 1512 1514 1515 1518 1520 1522 1524 1527 1529 1531 1533 1535 1537 1539 1541 1542 1544 1546
1497 1503 1507 1509 1507 1504 1500 1499 1499 1499 1498 1498 1497 1496 1495 1494 1493 1493 1493 1494 1494 1495 1496 1497 1498 1500 1501 1503 1505 1506 1508 1510 1512 1514 1516 1518 1521 1523 1525 1528 1530 1532 1534 1536 1538 1540 1542 1544 1546
1498 1506 1508 1507 1505 1502 1500 1499 1498 1497 1497 1496 1496 1495 1494 1493 1492 1492 1492 1492 1493 1494 1494 1495 1497 1498 1499 1501 1503 1504 1506 1508 1510 1512 1514 1516 1519 1521 1523 1526 1528 1531 1533 1535 1538 1540 1542 1543 1545
1498 1506 1504 1502 1501 1500 1499 1499 1498 1497 1495 1494 1493 1493 1493 1492 1491 1490 1490 1490 1491 1491 1492 1493 1494 1496 1497 1498 1500 1501 1503 1505 1507 1509 1511 1514 1516 1519 1521 1524 1527 1529 1532 1534 1537 1539 1541 1543 1544
1498 1501 1500 1499 1499 1499 1498 1498 1497 1496 1494 1492 1491 1489 1489 1489 1488 1488 1488 1488 1488 1489 1489 1490 1491 1493 1494 1495 1497 1498 1500 1502 1504 1506 1508 1511 1514 1516 1519 1521 1524 1527 1530 1532 1535 1537 1539 1541 1543
1498 1498 1498 1498 1498 1497 1497 1496 1495 1492 1490 1489 1488 1487 1486 1485 1484 1484 1484 1484 1485 1485 1486 1487 1488 1489 1490 1492 1493 1495 1497 1499 1501 1503 1505 1507 1510 1513 1515 1518 1521 1524 1527 1530 1532 1535 1537 1540 1542
1498 1498 1497 1497 1496 1495 1494 1493 1492 1487 1485 1485 1484 1483 1481 1480 1479 1479 1479 1480 1480 1480 1481 1483 1484 1485 1487 1488 1490 1491 1493 1495 1497 1499 1502 1504 1506 1509 1512 1515 1518 1521 1524 1527 1530 1533 1535 1538 1540
1497 1497 1496 1495 1494 1493 1492 1489 1489 1481 1482 1481 1479 1478 1477 1476 1475 1474 1474 1474 1475 1476 1477 1478 1479 1481 1482 1484 1485 1487 1489 1491 1493 1495 1497 1500 1503 1505 1508 1511 1515 1518 1521 1524 1527 1530 1533 1535 1538
1497 1497 1495 1493 1492 1491 1490 1487 1484 1480 1479 1477 1475 1473 1472 1470 1470 1469 1469 1469 1470 1470 1471 1473 1474 1475 1477 1479 1481 1482 1484 1487 1489 1491 1493 1496 1498 1501 1505 1507 1511 1514 1517 1521 1524 1527 1530 1532 1535
1498 1500 1499 1495 1492 1490 1493 1488 1480 1478 1477 1474 1471 1469 1467 1465 1464 1464 1464 1464 1464 1465 1466 1467 1469 1470 1472 1474 1476 1478 1480 1482 1484 1486 1489 1491 1494 1497 1500 1503 1506 1510 1513 1517 1520 1523 1526 1529 1531
1502 1504 1502 1497 1492 1491 1491 1487 1479 1477 1474 1471 1468 1465 1462 1460 1458 1458 1458 1458 1459 1459 1460 1462 1464 1465 1467 1469 1471 1473 1475 1477 1479 1482 1484 1486 1489 1492 1495 1499 1502 1506 1509 1512 1516 1519 1522 1525 1528
1504 1504 1502 1499 1493 1491 1490 1484 1477 1474 1472 1469 1466 1462 1459 1456 1454 1453 1453 1453 1453 1454 1455 1457 1458 1460 1462 1464 1466 1468 1469 1471 1474 1476 1479 1481 1484 1487 1491 1494 1497 1501 1504 1507 1511 1514 1517 1521 1524
1502 1503 1503 1498 1492 1491 1487 1482 1476 1472 1470 1467 1463 1460 1457 1453 1451 1449 1448 1448 1448 1449 1450 1451 1453 1455 1457 1459 1460 1462 1464 1467 1469 1471 1474 1477 1479 1482 1486 1489 1492 1495 1498 1502 1505 1509 1513 1516 1520
1502 1502 1501 1495 1490 1488 1486 1480 1474 1471 1469 1466 1463 1459 1456 1451 1448 1445 1444 1444 1444 1444 1446 1447 1449 1450 1453 1455 1456 1458 1460 1462 1464 1466 1469 1471 1474 1477 1480 1483 1486 1489 1493 1496 1499 1503 1507 1510 1514
1499 1501 1499 1497 1491 1487 1487 1479 1474 1470 1468 1465 1463 1459 1456 1452 1447 1444 1442 1441 1441 1441 1442 1443 1444 1446 1448 1450 1452 1454 1456 1457 1460 1461 1464 1466 1469 1472 1475 1478 1481 1484 1487 1491 1494 1498 1501 1504 1508
1498 1494 1495 1494 1494 1492 1490 1489 1477 1473 1469 1466 1463 1459 1455 1451 1447 1444 1441 1440 1439 1438 1439 1439 1440 1442 1444 1446 1448 1449 1451 1452 1454 1457 1459 1462 1464 1466 1469 1472 1475 1478 1481 1485 1488 1491 1494 1498 1501
1495 1492 1493 1493 1492 1493 1491 1491 1483 1476 1471 1467 1464 1460 1456 1452 1448 1445 1442 1439 1438 1437 1436 1437 1438 1439 1440 1442 1444 1446 1447 1449 1451 1453 1455 1457 1459 1461 1464 1467 1469 1472 1475 1478 1481 1484 1488 1491 1494
1492 1492 1492 1493 1494 1496 1490 1492 1486 1479 1475 1470 1466 1462 1458 1453 1449 1446 1442 1439 1437 1436 1435 1435 1436 1437 1438 1439 1441 1442 1444 1445 1447 1448 1451 1452 1454 1456 1458 1461 1463 1466 1469 1471 1474 1478 1481 1484 1487
1492 1496 1500 1498 1501 1495 1488 1488 1486 1478 1476 1473 1469 1465 1461 1456 1451 1447 1444 1441 1438 1436 1435 1435 1435 1435 1436 1437 1438 1440 1441 1442 1443 1445 1446 1448 1449 1451 1453 1455 1457 1460 1462 1465 1468 1470 1472 1476 1479
1492 1494 1499 1498 1498 1494 1488 1487 1483 1478 1476 1474 1471 1467 1463 1459 1455 1451 1447 1443 1440 1438 1436 1435 1435 1435 1436 1436 1436 1437 1438 1439 1440 1441 1442 1443 1445 1446 1448 1450 1452 1454 1456 1458 1460 1462 1465 1468 1470
1491 1493 1493 1498 1497 1495 1489 1484 1479 1477 1476 1474 1472 1469 1465 1462 1458 1454 1450 1447 1444 1441 1439 1437 1437 1436 1436 1436 1435 1436 1437 1437 1438 1439 1439 1440 1441 1443 1444 1445 1447 1448 1450 1452 1454 1455 1457 1460 1463
1490 1491 1495 1496 1494 1490 1487 1485 1483 1479 1477 1475 1473 1471 1468 1464 1461 1457 1454 1450 1447 1445 1442 1440 1439 1438 1437 1437 1436 1436 1436 1436 1436 1436 1437 1437 1438 1439 1440 1440 1441 1443 1444 1446 1448 1449 1451 1453 1455
1490 1491 1492 1495 1495 1493 1490 1487 1481 1480 1479 1477 1475 1473 1470 1467 1464 1460 1457 1453 1450 1448 1445 1443 1441 1439 1438 1437 1437 1436 1436 1436 1435 1435 1434 1434 1435 1435 1435 1436 1436 1437 1438 1440 1442 1443 1444 1446 1449
1487 1488 1491 1493 1493 1495 1494 1491 1480 1480 1479 1478 1476 1474 1472 1469 1466 1463 1459 1455 1452 1449 1447 1445 1444 1442 1440 1439 1438 1437 1436 1435 1433 1433 1433 1432 1432 1432 1431 1431 1431 1432 1433 1434 1435 1436 1438 1440 1441